| time (UTC) | temp F | wind direction | speed MPH | gust MPH | rain 1hr in | rain 24hr in | rain mn in | humidity % | barometer mb |
| 20260504173042 | 71 | 360 | 12.0 | 20.0 | 0.00 | 0.00 | 0.00 | 50 | 976.8 |
| 20260504172543 | 71 | 360 | 14.0 | 19.0 | 0.00 | 0.00 | 0.00 | 50 | 976.5 |
| 20260504172042 | 70 | 360 | 8.0 | 14.0 | 0.00 | 0.00 | 0.00 | 50 | 976.2 |
| 20260504171547 | 70 | 360 | 5.0 | 11.0 | 0.00 | 0.00 | 0.00 | 50 | 975.9 |
| 20260504171042 | 70 | 360 | 3.0 | 13.0 | 0.00 | 0.00 | 0.00 | 51 | 976.1 |
| 20260504170542 | 70 | 360 | 9.0 | 15.0 | 0.00 | 0.00 | 0.00 | 51 | 976.2 |
| 20260504151043 | 70 | 360 | 8.0 | 17.0 | 0.00 | 0.00 | 0.00 | 51 | 976.4 |
| 20260504150542 | 70 | 360 | 8.0 | 17.0 | 0.00 | 0.00 | 0.00 | 50 | 976.3 |
| 20260504141042 | 72 | 360 | 5.0 | 9.0 | 0.00 | 0.00 | 0.00 | 41 | 975.0 |
| 20260504140542 | 72 | 360 | 3.0 | 9.0 | 0.00 | 0.00 | 0.00 | 41 | 974.8 |
| 20260504130542 | 73 | 360 | 7.0 | 11.0 | 0.00 | 0.00 | 0.00 | 39 | 975.1 |
| 20260504110543 | 73 | 360 | 0.0 | 4.0 | 0.00 | 0.00 | 0.00 | 39 | 974.3 |
| 20260504100542 | 74 | 360 | 4.0 | 6.0 | 0.00 | 0.00 | 0.00 | 38 | 974.2 |
| 20260504081542 | 78 | 360 | 8.0 | 12.0 | 0.00 | 0.00 | 0.00 | 35 | 973.7 |
| 20260504081042 | 78 | 360 | 6.0 | 12.0 | 0.00 | 0.00 | 0.00 | 35 | 973.7 |
| 20260504080544 | 78 | 360 | 7.0 | 11.0 | 0.00 | 0.00 | 0.00 | 35 | 973.8 |
| 20260504050543 | 81 | 360 | 16.0 | 33.0 | 0.00 | 0.00 | 0.00 | 27 | 972.9 |
| 20260504045541 | 82 | 360 | 16.0 | 34.0 | 0.00 | 0.00 | 0.00 | 26 | 972.8 |
| 20260504045042 | 82 | 360 | 13.0 | 28.0 | 0.00 | 0.00 | 0.00 | 26 | 972.8 |
| 20260504044546 | 82 | 360 | 13.0 | 25.0 | 0.00 | 0.00 | 0.00 | 25 | 973.0 |
| 20260504044042 | 82 | 360 | 17.0 | 26.0 | 0.00 | 0.00 | 0.00 | 25 | 973.1 |
| 20260504043543 | 82 | 360 | 12.0 | 26.0 | 0.00 | 0.00 | 0.00 | 25 | 972.9 |
| 20260504043042 | 83 | 360 | 12.0 | 27.0 | 0.00 | 0.00 | 0.00 | 24 | 972.9 |
| 20260504042541 | 83 | 360 | 13.0 | 25.0 | 0.00 | 0.00 | 0.00 | 24 | 972.9 |
| 20260504042042 | 83 | 360 | 14.0 | 28.0 | 0.00 | 0.00 | 0.00 | 24 | 972.9 |
| 20260504041542 | 83 | 360 | 14.0 | 28.0 | 0.00 | 0.00 | 0.00 | 23 | 972.9 |
| 20260504041046 | 83 | 360 | 13.0 | 25.0 | 0.00 | 0.00 | 0.00 | 23 | 972.5 |
| 20260504040542 | 83 | 360 | 10.0 | 26.0 | 0.00 | 0.00 | 0.00 | 21 | 972.5 |
| 20260504040100 | 84 | 360 | 12.0 | 26.0 | 0.00 | 0.00 | 0.00 | 21 | 972.3 |
| 20260504035542 | 84 | 360 | 12.0 | 25.0 | 0.00 | 0.00 | 0.00 | 21 | 972.3 |
| 20260504035042 | 84 | 360 | 15.0 | 25.0 | 0.00 | 0.00 | 0.00 | 20 | 972.3 |
| 20260504034606 | 84 | 360 | 14.0 | 27.0 | 0.00 | 0.00 | 0.00 | 20 | 972.1 |
| 20260504034043 | 84 | 360 | 16.0 | 25.0 | 0.00 | 0.00 | 0.00 | 19 | 972.0 |
| 20260504033546 | 84 | 360 | 16.0 | 24.0 | 0.00 | 0.00 | 0.00 | 19 | 971.9 |
| 20260504033042 | 84 | 360 | 14.0 | 24.0 | 0.00 | 0.00 | 0.00 | 19 | 971.9 |
| 20260504032543 | 84 | 360 | 15.0 | 28.0 | 0.00 | 0.00 | 0.00 | 18 | 971.7 |
| 20260504032044 | 85 | 360 | 19.0 | 28.0 | 0.00 | 0.00 | 0.00 | 18 | 971.5 |
| 20260504031541 | 85 | 360 | 14.0 | 29.0 | 0.00 | 0.00 | 0.00 | 17 | 971.5 |
| 20260504031042 | 85 | 360 | 18.0 | 29.0 | 0.00 | 0.00 | 0.00 | 17 | 971.4 |
| 20260504030542 | 85 | 360 | 16.0 | 31.0 | 0.00 | 0.00 | 0.00 | 17 | 971.3 |
| 20260504030058 | 86 | 360 | 19.0 | 31.0 | 0.00 | 0.00 | 0.00 | 17 | 971.2 |
| 20260504025542 | 86 | 360 | 17.0 | 27.0 | 0.00 | 0.00 | 0.00 | 17 | 971.2 |
| 20260504025042 | 86 | 360 | 16.0 | 27.0 | 0.00 | 0.00 | 0.00 | 17 | 971.0 |
| 20260504024544 | 86 | 360 | 14.0 | 30.0 | 0.00 | 0.00 | 0.00 | 17 | 971.0 |
| 20260504024041 | 86 | 360 | 19.0 | 30.0 | 0.00 | 0.00 | 0.00 | 16 | 970.7 |
| 20260504023542 | 86 | 360 | 16.0 | 25.0 | 0.00 | 0.00 | 0.00 | 17 | 970.8 |
| 20260504023042 | 87 | 360 | 17.0 | 26.0 | 0.00 | 0.00 | 0.00 | 16 | 970.8 |
| 20260504022542 | 87 | 360 | 17.0 | 26.0 | 0.00 | 0.00 | 0.00 | 16 | 970.6 |
| 20260504022042 | 87 | 360 | 14.0 | 24.0 | 0.00 | 0.00 | 0.00 | 16 | 970.7 |
| 20260504021546 | 87 | 360 | 14.0 | 24.0 | 0.00 | 0.00 | 0.00 | 15 | 970.7 |
| 20260504021041 | 88 | 360 | 15.0 | 24.0 | 0.00 | 0.00 | 0.00 | 15 | 970.4 |
| 20260504020545 | 88 | 360 | 13.0 | 25.0 | 0.00 | 0.00 | 0.00 | 14 | 970.3 |
| 20260504020042 | 88 | 360 | 14.0 | 25.0 | 0.00 | 0.00 | 0.00 | 13 | 970.5 |
| 20260504015542 | 89 | 360 | 14.0 | 29.0 | 0.00 | 0.00 | 0.00 | 13 | 970.3 |
| 20260504015043 | 89 | 360 | 18.0 | 29.0 | 0.00 | 0.00 | 0.00 | 13 | 970.0 |
| 20260504014542 | 89 | 360 | 16.0 | 29.0 | 0.00 | 0.00 | 0.00 | 13 | 970.1 |
| 20260504014042 | 89 | 360 | 19.0 | 28.0 | 0.00 | 0.00 | 0.00 | 13 | 970.1 |
| 20260504013542 | 89 | 360 | 14.0 | 28.0 | 0.00 | 0.00 | 0.00 | 14 | 970.1 |
| 20260504013049 | 90 | 360 | 18.0 | 28.0 | 0.00 | 0.00 | 0.00 | 14 | 970.1 |
| 20260504012542 | 90 | 360 | 14.0 | 28.0 | 0.00 | 0.00 | 0.00 | 14 | 970.1 |
| 20260504012044 | 90 | 360 | 15.0 | 28.0 | 0.00 | 0.00 | 0.00 | 14 | 970.0 |
| 20260504011542 | 90 | 360 | 16.0 | 29.0 | 0.00 | 0.00 | 0.00 | 15 | 969.9 |
| 20260504011041 | 90 | 360 | 14.0 | 29.0 | 0.00 | 0.00 | 0.00 | 15 | 970.1 |
| 20260504010542 | 91 | 360 | 19.0 | 28.0 | 0.00 | 0.00 | 0.00 | 15 | 970.0 |
| 20260504010042 | 91 | 360 | 15.0 | 29.0 | 0.00 | 0.00 | 0.00 | 15 | 970.2 |
| 20260504005542 | 91 | 360 | 17.0 | 27.0 | 0.00 | 0.00 | 0.00 | 15 | 970.1 |
| 20260504005046 | 92 | 360 | 14.0 | 24.0 | 0.00 | 0.00 | 0.00 | 15 | 970.1 |
| 20260504004542 | 92 | 360 | 13.0 | 25.0 | 0.00 | 0.00 | 0.00 | 15 | 970.1 |
| 20260504004041 | 92 | 360 | 15.0 | 24.0 | 0.00 | 0.00 | 0.00 | 15 | 970.3 |
| 20260504003542 | 92 | 360 | 14.0 | 25.0 | 0.00 | 0.00 | 0.00 | 14 | 970.3 |
| 20260504003042 | 92 | 360 | 15.0 | 25.0 | 0.00 | 0.00 | 0.00 | 14 | 970.2 |
| 20260504002543 | 92 | 360 | 11.0 | 20.0 | 0.00 | 0.00 | 0.00 | 14 | 970.2 |
| 20260504002042 | 92 | 360 | 11.0 | 26.0 | 0.00 | 0.00 | 0.00 | 14 | 970.1 |
| 20260504001557 | 92 | 360 | 15.0 | 26.0 | 0.00 | 0.00 | 0.00 | 14 | 970.3 |
| 20260504001042 | 93 | 360 | 16.0 | 25.0 | 0.00 | 0.00 | 0.00 | 14 | 970.2 |
| 20260504000542 | 93 | 360 | 14.0 | 25.0 | 0.00 | 0.00 | 0.00 | 13 | 970.0 |
| 20260504000041 | 93 | 360 | 17.0 | 27.0 | 0.00 | 0.00 | 0.00 | 13 | 970.1 |
| 20260503235542 | 93 | 360 | 15.0 | 27.0 | 0.00 | 0.00 | 0.00 | 13 | 970.2 |
| 20260503235046 | 93 | 360 | 10.0 | 26.0 | 0.00 | 0.00 | 0.00 | 13 | 970.1 |
| 20260503234542 | 93 | 360 | 15.0 | 26.0 | 0.00 | 0.00 | 0.00 | 13 | 970.1 |
| 20260503234042 | 94 | 360 | 14.0 | 25.0 | 0.00 | 0.00 | 0.00 | 13 | 970.1 |
| 20260503233542 | 94 | 360 | 11.0 | 26.0 | 0.00 | 0.00 | 0.00 | 13 | 970.0 |
| 20260503233041 | 94 | 360 | 14.0 | 23.0 | 0.00 | 0.00 | 0.00 | 13 | 969.9 |
| 20260503232543 | 94 | 360 | 15.0 | 25.0 | 0.00 | 0.00 | 0.00 | 13 | 970.0 |
| 20260503232043 | 94 | 360 | 12.0 | 26.0 | 0.00 | 0.00 | 0.00 | 13 | 969.8 |
| 20260503231546 | 95 | 360 | 14.0 | 26.0 | 0.00 | 0.00 | 0.00 | 13 | 969.7 |
| 20260503231043 | 95 | 360 | 15.0 | 23.0 | 0.00 | 0.00 | 0.00 | 13 | 969.8 |
| 20260503230544 | 95 | 360 | 10.0 | 20.0 | 0.00 | 0.00 | 0.00 | 12 | 970.0 |
| 20260503230042 | 95 | 360 | 13.0 | 19.0 | 0.00 | 0.00 | 0.00 | 13 | 969.9 |
| 20260503225541 | 96 | 360 | 10.0 | 20.0 | 0.00 | 0.00 | 0.00 | 12 | 970.1 |
| 20260503225042 | 96 | 360 | 13.0 | 22.0 | 0.00 | 0.00 | 0.00 | 12 | 970.1 |
| 20260503224542 | 96 | 360 | 13.0 | 22.0 | 0.00 | 0.00 | 0.00 | 12 | 970.2 |
| 20260503224042 | 96 | 360 | 10.0 | 19.0 | 0.00 | 0.00 | 0.00 | 12 | 970.3 |
| 20260503223543 | 96 | 360 | 8.0 | 19.0 | 0.00 | 0.00 | 0.00 | 12 | 970.3 |
| 20260503223041 | 95 | 360 | 12.0 | 31.0 | 0.00 | 0.00 | 0.00 | 12 | 970.4 |
| 20260503222541 | 95 | 360 | 17.0 | 31.0 | 0.00 | 0.00 | 0.00 | 12 | 970.4 |
| 20260503222041 | 95 | 360 | 3.0 | 15.0 | 0.00 | 0.00 | 0.00 | 12 | 970.5 |
| 20260503221545 | 95 | 360 | 10.0 | 15.0 | 0.00 | 0.00 | 0.00 | 12 | 970.6 |
| 20260503221042 | 95 | 360 | 11.0 | 15.0 | 0.00 | 0.00 | 0.00 | 13 | 970.6 |
| 20260503220542 | 95 | 360 | 7.0 | 17.0 | 0.00 | 0.00 | 0.00 | 12 | 970.7 |
| 20260503220042 | 95 | 360 | 9.0 | 18.0 | 0.00 | 0.00 | 0.00 | 12 | 970.9 |
| 20260503215541 | 95 | 360 | 10.0 | 19.0 | 0.00 | 0.00 | 0.00 | 12 | 971.0 |
| 20260503215041 | 95 | 360 | 8.0 | 29.0 | 0.00 | 0.00 | 0.00 | 13 | 971.0 |
| 20260503214541 | 95 | 360 | 15.0 | 29.0 | 0.00 | 0.00 | 0.00 | 13 | 971.1 |
| 20260503214042 | 95 | 294 | 9.0 | 19.0 | 0.00 | 0.00 | 0.00 | 12 | 971.0 |
| 20260503213542 | 95 | 360 | 7.0 | 19.0 | 0.00 | 0.00 | 0.00 | 13 | 971.1 |
| 20260503213045 | 95 | 360 | 2.0 | 17.0 | 0.00 | 0.00 | 0.00 | 13 | 971.2 |
| 20260503212542 | 96 | 360 | 12.0 | 17.0 | 0.00 | 0.00 | 0.00 | 13 | 971.3 |
| 20260503212042 | 96 | 360 | 9.0 | 15.0 | 0.00 | 0.00 | 0.00 | 12 | 971.4 |
| 20260503211548 | 97 | 360 | 8.0 | 18.0 | 0.00 | 0.00 | 0.00 | 12 | 971.5 |
| 20260503211043 | 97 | 360 | 7.0 | 14.0 | 0.00 | 0.00 | 0.00 | 12 | 971.7 |
| 20260503210543 | 97 | 360 | 2.0 | 9.0 | 0.00 | 0.00 | 0.00 | 13 | 971.6 |
| 20260503210042 | 96 | 74 | 2.0 | 11.0 | 0.00 | 0.00 | 0.00 | 14 | 971.8 |
| 20260503205542 | 95 | 360 | 3.0 | 13.0 | 0.00 | 0.00 | 0.00 | 14 | 971.8 |
| 20260503205041 | 95 | 360 | 8.0 | 17.0 | 0.00 | 0.00 | 0.00 | 13 | 972.0 |
| 20260503204552 | 94 | 360 | 12.0 | 20.0 | 0.00 | 0.00 | 0.00 | 14 | 972.0 |
| 20260503204041 | 94 | 88 | 12.0 | 20.0 | 0.00 | 0.00 | 0.00 | 14 | 972.1 |
| 20260503203541 | 94 | 130 | 4.0 | 11.0 | 0.00 | 0.00 | 0.00 | 14 | 972.3 |
| 20260503203047 | 95 | 360 | 3.0 | 12.0 | 0.00 | 0.00 | 0.00 | 14 | 972.3 |
| 20260503202543 | 95 | 360 | 5.0 | 13.0 | 0.00 | 0.00 | 0.00 | 14 | 972.3 |
| 20260503202042 | 95 | 224 | 7.0 | 20.0 | 0.00 | 0.00 | 0.00 | 14 | 972.6 |
| 20260503201542 | 95 | 167 | 13.0 | 20.0 | 0.00 | 0.00 | 0.00 | 14 | 972.6 |
| 20260503201043 | 95 | 177 | 8.0 | 15.0 | 0.00 | 0.00 | 0.00 | 14 | 972.6 |
| 20260503200542 | 94 | 171 | 8.0 | 14.0 | 0.00 | 0.00 | 0.00 | 15 | 972.7 |
| 20260503200042 | 94 | 188 | 5.0 | 14.0 | 0.00 | 0.00 | 0.00 | 15 | 972.9 |
| 20260503195542 | 94 | 144 | 5.0 | 11.0 | 0.00 | 0.00 | 0.00 | 15 | 972.8 |
| 20260503195041 | 94 | 360 | 3.0 | 16.0 | 0.00 | 0.00 | 0.00 | 15 | 972.9 |
| 20260503194545 | 92 | 360 | 2.0 | 21.0 | 0.00 | 0.00 | 0.00 | 16 | 973.0 |
| 20260503194042 | 93 | 360 | 11.0 | 21.0 | 0.00 | 0.00 | 0.00 | 16 | 973.2 |
| 20260503193542 | 93 | 360 | 6.0 | 14.0 | 0.00 | 0.00 | 0.00 | 16 | 973.1 |
| 20260503193052 | 92 | 360 | 2.0 | 18.0 | 0.00 | 0.00 | 0.00 | 17 | 973.1 |
| 20260503192541 | 92 | 360 | 11.0 | 18.0 | 0.00 | 0.00 | 0.00 | 17 | 973.6 |
| 20260503192042 | 92 | 360 | 6.0 | 20.0 | 0.00 | 0.00 | 0.00 | 17 | 973.6 |
| 20260503191544 | 91 | 360 | 10.0 | 20.0 | 0.00 | 0.00 | 0.00 | 17 | 973.6 |
| 20260503191042 | 91 | 360 | 9.0 | 18.0 | 0.00 | 0.00 | 0.00 | 18 | 973.7 |
| 20260503190541 | 92 | 360 | 4.0 | 15.0 | 0.00 | 0.00 | 0.00 | 18 | 973.7 |
| 20260503190056 | 91 | 360 | 5.0 | 17.0 | 0.00 | 0.00 | 0.00 | 18 | 973.8 |
| 20260503185541 | 91 | 360 | 11.0 | 18.0 | 0.00 | 0.00 | 0.00 | 18 | 974.0 |
| 20260503185045 | 91 | 360 | 10.0 | 18.0 | 0.00 | 0.00 | 0.00 | 19 | 973.9 |
| 20260503184542 | 90 | 360 | 7.0 | 15.0 | 0.00 | 0.00 | 0.00 | 21 | 974.1 |
| 20260503184042 | 89 | 360 | 8.0 | 17.0 | 0.00 | 0.00 | 0.00 | 21 | 974.1 |
| 20260503183542 | 89 | 360 | 7.0 | 19.0 | 0.00 | 0.00 | 0.00 | 21 | 974.2 |
| 20260503183055 | 88 | 360 | 12.0 | 19.0 | 0.00 | 0.00 | 0.00 | 22 | 974.2 |
| 20260503182541 | 88 | 360 | 10.0 | 16.0 | 0.00 | 0.00 | 0.00 | 23 | 974.3 |
| 20260503182041 | 88 | 360 | 12.0 | 16.0 | 0.00 | 0.00 | 0.00 | 23 | 974.4 |
| 20260503181542 | 88 | 360 | 11.0 | 16.0 | 0.00 | 0.00 | 0.00 | 24 | 974.5 |
| 20260503181043 | 88 | 360 | 8.0 | 15.0 | 0.00 | 0.00 | 0.00 | 25 | 974.7 |
| 20260503180543 | 87 | 360 | 9.0 | 17.0 | 0.00 | 0.00 | 0.00 | 26 | 974.9 |
| 20260503180052 | 86 | 360 | 5.0 | 14.0 | 0.00 | 0.00 | 0.00 | 27 | 974.9 |
| 20260503175543 | 86 | 360 | 6.0 | 18.0 | 0.00 | 0.00 | 0.00 | 27 | 975.0 |
| 20260503175041 | 86 | 360 | 9.0 | 17.0 | 0.00 | 0.00 | 0.00 | 28 | 974.9 |
| 20260503174542 | 86 | 360 | 9.0 | 18.0 | 0.00 | 0.00 | 0.00 | 27 | 975.0 |
| 20260503174045 | 86 | 360 | 12.0 | 19.0 | 0.00 | 0.00 | 0.00 | 27 | 975.0 |
| 20260503173546 | 85 | 360 | 11.0 | 20.0 | 0.00 | 0.00 | 0.00 | 28 | 975.1 |